1998-067JF

Last updated on May 29, 2016, 5:36 p.m. UTC

1 41485U 98067JF  16150.25144685  .00017585  00000-0  25731-3 0  9997
2 41485  51.6410 152.4269 0001593 347.8784  99.3844 15.55683266  1666

Satellite is not in orbit.